Weather History for KEHR - January, 2013

Change the Weather History Date:

Monday, January 21, 2013

  Actual Average Record
Temperature  
Mean Temperature 22 °F -  
Max Temperature 28 °F 41 °F 72 °F (1986)
Min Temperature 17 °F 24 °F -16 °F (1984)
Degree Days  
Heating Degree Days 42    
Moisture  
Dew Point 5 °F    
Average Humidity 44    
Maximum Humidity 55    
Minimum Humidity 34    
Precipitation  
Precipitation 0.00 in - - ()
Sea Level Pressure  
Sea Level Pressure 30.29 in    
Wind  
Wind Speed 11 mph (NW)    
Max Wind Speed 23 mph    
Max Gust Speed 29 mph    
Visibility 10 miles    
Events      
Averages and records for this station are not official NWS values.
T = Trace of Precipitation, MM = Missing Value Source: NWS Daily Summary

Daily Weather History Graph

Daily Weather History Graph

Search for Another Location

Airport or City:

Trip Planner

Search our weather history database for the weather conditions in past years. The results will help you decide how hot, cold, wet, or windy it might be!

Date:

Astronomy

Jan. 21, 2013 Rise Set
Actual Time 7:02 AM CST 5:02 PM CST
Civil Twilight 6:33 AM CST 5:30 PM CST
Nautical Twilight 6:02 AM CST 6:02 PM CST
Astronomical Twilight 5:30 AM CST 6:33 PM CST
Moon 12:42 PM CST (1/21) 2:30 AM CST (1/21)
Length of Visible Light 10h 56m
Length of Day
10h 00m
Waxing Gibbous, 75% of the Moon is Illuminated
Jan 21
Waxing Gibbous
Jan 26
Full
Feb 3
Last Quarter
Feb 10
New
Feb 17
First Quarter

Hourly Weather History & Observations

Time (CST) Temp. Windchill Dew Point Humidity Pressure Visibility Wind Dir Wind Speed Gust Speed Precip Events Conditions
12:15 AM 26.6 °F 20.0 °F 12.2 °F 55% 30.23 in 10.0 mi NNW 5.8 mph - N/A   Clear
12:35 AM 26.6 °F 20.0 °F 10.4 °F 51% 30.22 in 10.0 mi NNW 5.8 mph - N/A   Clear
12:55 AM 26.6 °F 20.0 °F 10.4 °F 51% 30.22 in 10.0 mi NW 5.8 mph - N/A   Clear
1:15 AM 26.6 °F 21.2 °F 12.2 °F 55% 30.22 in 10.0 mi NW 4.6 mph - N/A   Clear
1:35 AM 26.6 °F 20.0 °F 12.2 °F 55% 30.23 in 10.0 mi NW 5.8 mph - N/A   Clear
1:55 AM 26.6 °F 20.0 °F 12.2 °F 55% 30.24 in 10.0 mi NNW 5.8 mph - N/A   Clear
2:15 AM 26.6 °F 19.1 °F 10.4 °F 51% 30.24 in 10.0 mi NNW 6.9 mph - N/A   Clear
2:35 AM 26.6 °F 18.2 °F 12.2 °F 55% 30.25 in 10.0 mi NW 8.1 mph - N/A   Clear
2:55 AM 26.6 °F 19.1 °F 12.2 °F 55% 30.24 in 10.0 mi NNW 6.9 mph - N/A   Clear
3:15 AM 26.6 °F 17.5 °F 12.2 °F 55% 30.25 in 10.0 mi NW 9.2 mph - N/A   Clear
3:35 AM 26.6 °F 18.2 °F 10.4 °F 51% 30.25 in 10.0 mi NW 8.1 mph - N/A   Clear
3:55 AM 26.6 °F 19.1 °F 10.4 °F 51% 30.25 in 10.0 mi NW 6.9 mph - N/A   Clear
5:15 AM 24.8 °F 14.0 °F 10.4 °F 54% 30.26 in 10.0 mi NW 11.5 mph - N/A   Partly Cloudy
5:35 AM 24.8 °F 13.4 °F 10.4 °F 54% 30.26 in 10.0 mi NW 12.7 mph - N/A   Clear
5:55 AM 24.8 °F 14.6 °F 10.4 °F 54% 30.26 in 10.0 mi NW 10.4 mph - N/A   Clear
6:15 AM 24.8 °F 12.9 °F 8.6 °F 50% 30.28 in 10.0 mi NW 13.8 mph - N/A   Clear
6:35 AM 23.0 °F 11.7 °F 8.6 °F 54% 30.28 in 10.0 mi NW 11.5 mph - N/A   Clear
6:55 AM 23.0 °F 10.1 °F 8.6 °F 54% 30.29 in 10.0 mi NW 15.0 mph 18.4 mph N/A   Clear
7:15 AM 23.0 °F 12.4 °F 8.6 °F 54% 30.30 in 10.0 mi NW 10.4 mph - N/A   Mostly Cloudy
7:35 AM 23.0 °F 9.6 °F 8.6 °F 54% 30.30 in 10.0 mi NW 16.1 mph 20.7 mph N/A   Overcast
7:55 AM 23.0 °F 10.6 °F 8.6 °F 54% 30.30 in 10.0 mi NW 13.8 mph 18.4 mph N/A   Scattered Clouds
8:15 AM 24.8 °F 12.4 °F 8.6 °F 50% 30.30 in 10.0 mi NW 15.0 mph - N/A   Partly Cloudy
8:35 AM 24.8 °F 11.9 °F 8.6 °F 50% 30.30 in 10.0 mi West 16.1 mph 19.6 mph N/A   Scattered Clouds
8:55 AM 24.8 °F 12.9 °F 8.6 °F 50% 30.31 in 10.0 mi WNW 13.8 mph 21.9 mph N/A   Partly Cloudy
9:15 AM 26.6 °F 13.8 °F 8.6 °F 47% 30.31 in 10.0 mi WNW 17.3 mph - N/A   Clear
9:35 AM 26.6 °F 12.0 °F 8.6 °F 47% 30.32 in 10.0 mi WNW 23.0 mph 27.6 mph N/A   Scattered Clouds
9:55 AM 26.6 °F 13.1 °F 8.6 °F 47% 30.31 in 10.0 mi NW 19.6 mph 27.6 mph N/A   Partly Cloudy
10:15 AM 26.6 °F 13.8 °F 6.8 °F 43% 30.31 in 10.0 mi WNW 17.3 mph 27.6 mph N/A   Clear
10:35 AM 28.4 °F 15.4 °F 6.8 °F 40% 30.30 in 10.0 mi WNW 19.6 mph 28.8 mph N/A   Clear
10:55 AM 28.4 °F 14.7 °F 6.8 °F 40% 30.30 in 10.0 mi WNW 21.9 mph 26.5 mph N/A   Clear
11:15 AM 28.4 °F 15.1 °F 6.8 °F 40% 30.30 in 10.0 mi WNW 20.7 mph - N/A   Clear
11:35 AM 28.4 °F 15.4 °F 5.0 °F 37% 30.29 in 10.0 mi NW 19.6 mph 28.8 mph N/A   Clear
11:55 AM 28.4 °F 15.4 °F 3.2 °F 34% 30.28 in 10.0 mi NW 19.6 mph 25.3 mph N/A   Clear
12:15 PM 28.4 °F 16.2 °F 3.2 °F 34% 30.28 in 10.0 mi NW 17.3 mph 23.0 mph N/A   Clear
12:35 PM 28.4 °F 15.8 °F 3.2 °F 34% 30.27 in 10.0 mi WNW 18.4 mph 21.9 mph N/A   Clear
1:15 PM 28.4 °F 14.4 °F 3.2 °F 34% 30.27 in 10.0 mi WNW 23.0 mph 26.5 mph N/A   Clear
1:35 PM 28.4 °F 14.7 °F 3.2 °F 34% 30.27 in 10.0 mi WNW 21.9 mph 26.5 mph N/A   Clear
2:15 PM 28.4 °F 16.2 °F 3.2 °F 34% 30.28 in 10.0 mi WNW 17.3 mph 21.9 mph N/A   Clear
2:35 PM 28.4 °F 17.5 °F 3.2 °F 34% 30.29 in 10.0 mi NW 13.8 mph - N/A   Clear
2:55 PM 26.6 °F 13.8 °F 3.2 °F 37% 30.28 in 10.0 mi NW 17.3 mph 20.7 mph N/A   Clear
3:15 PM 26.6 °F 15.7 °F 1.4 °F 34% 30.29 in 10.0 mi NW 12.7 mph 18.4 mph N/A   Clear
3:35 PM 26.6 °F 16.8 °F 1.4 °F 34% 30.30 in 10.0 mi NNW 10.4 mph - N/A   Clear
3:55 PM 26.6 °F 15.2 °F 3.2 °F 37% 30.30 in 10.0 mi NW 13.8 mph 20.7 mph N/A   Clear
4:15 PM 26.6 °F 16.8 °F 1.4 °F 34% 30.30 in 10.0 mi NW 10.4 mph 23.0 mph N/A   Clear
4:35 PM 24.8 °F 12.4 °F 1.4 °F 36% 30.30 in 10.0 mi NW 15.0 mph 19.6 mph N/A   Clear
4:55 PM 24.8 °F 13.4 °F 1.4 °F 36% 30.30 in 10.0 mi WNW 12.7 mph 19.6 mph N/A   Clear
5:15 PM 24.8 °F 13.4 °F 1.4 °F 36% 30.31 in 10.0 mi NNW 12.7 mph - N/A   Clear
5:35 PM 23.0 °F 10.1 °F -0.4 °F 36% 30.31 in 10.0 mi NW 15.0 mph 18.4 mph N/A   Clear
5:55 PM 23.0 °F 12.4 °F -0.4 °F 36% 30.32 in 10.0 mi NW 10.4 mph - N/A   Partly Cloudy
6:15 PM 23.0 °F 11.1 °F -0.4 °F 36% 30.32 in 10.0 mi NW 12.7 mph - N/A   Mostly Cloudy
6:35 PM 21.2 °F 8.3 °F -0.4 °F 39% 30.32 in 10.0 mi NW 13.8 mph 19.6 mph N/A   Overcast
6:55 PM 21.2 °F 8.9 °F -0.4 °F 39% 30.32 in 10.0 mi NW 12.7 mph 19.6 mph N/A   Mostly Cloudy
7:15 PM 21.2 °F 10.1 °F -0.4 °F 39% 30.33 in 10.0 mi NNW 10.4 mph 18.4 mph N/A   Mostly Cloudy
7:35 PM 21.2 °F 9.5 °F -0.4 °F 39% 30.33 in 10.0 mi NNW 11.5 mph - N/A   Mostly Cloudy
7:55 PM 21.2 °F 9.5 °F -0.4 °F 39% 30.33 in 10.0 mi NW 11.5 mph - N/A   Mostly Cloudy
8:15 PM 21.2 °F 10.9 °F -0.4 °F 39% 30.33 in 10.0 mi NNW 9.2 mph - N/A   Mostly Cloudy
8:35 PM 21.2 °F 10.9 °F 1.4 °F 42% 30.33 in 10.0 mi NW 9.2 mph - N/A   Overcast
8:55 PM 21.2 °F 10.9 °F -0.4 °F 39% 30.34 in 10.0 mi North 9.2 mph - N/A   Overcast
9:15 PM 21.2 °F 11.7 °F -0.4 °F 39% 30.34 in 10.0 mi NW 8.1 mph - N/A   Overcast
9:35 PM 19.4 °F 7.2 °F -0.4 °F 42% 30.34 in 10.0 mi NNW 11.5 mph 17.3 mph N/A   Mostly Cloudy
9:55 PM 19.4 °F 9.5 °F -0.4 °F 42% 30.34 in 10.0 mi NNW 8.1 mph - N/A   Clear
10:35 PM 19.4 °F 12.8 °F -0.4 °F 42% 30.36 in 10.0 mi NNW 4.6 mph - N/A   Clear
10:55 PM 19.4 °F 8.6 °F -2.2 °F 39% 30.36 in 10.0 mi NNW 9.2 mph - N/A   Clear
11:15 PM 17.6 °F 7.3 °F -2.2 °F 42% 30.36 in 10.0 mi NNW 8.1 mph - N/A   Clear
11:35 PM 17.6 °F 8.2 °F -2.2 °F 42% 30.36 in 10.0 mi NNW 6.9 mph - N/A   Clear
11:55 PM 17.6 °F 8.2 °F -4.0 °F 38% 30.36 in 10.0 mi NNW 6.9 mph - N/A   Clear